Tracking 31027 objects as of 19-Jul-2025
HD Live streaming from Space Station
objects crossing your sky now

WEINA 2

Track WEINA 2 now!
10-day predictions


NORAD ID: 47303
Int'l Code: 2020-103B
Perigee: 685.4 km
Apogee: 689.1 km
Inclination: 98.1 °
Period: 98.4 minutes
Semi major axis: 7058 km
RCS: Unknown
Launch date: December 27, 2020
Source: People's Republic of China (PRC)
Launch site: Jiuquan Satellite Launch Center, China (JSC)
Your satellite tracking list
Your tracking list is empty




NASA's NSSDC Master Catalog

Two Line Element Set (TLE):
1 47303U 20103B   25199.83435153  .00000761  00000-0  15394-3 0  9990
2 47303  98.0915  90.4024 0002665 138.7615 221.3789 14.64059378242939
Source of the keplerian elements: AFSPC